Weather History for KHLN - September, 2012

Change the Weather History Date:

Friday, September 28, 2012

  Actual Average Record
Temperature  
Mean Temperature 61 °F 53 °F  
Max Temperature 81 °F 67 °F 89 °F (1892)
Min Temperature 41 °F 39 °F 19 °F (1965)
Degree Days  
Heating Degree Days 4 12  
Month to date heating degree days 101 213  
Since 1 July heating degree days 122 282  
Cooling Degree Days 0 0  
Month to date cooling degree days 5 22  
Year to date cooling degree days 529 405  
Growing Degree Days 11 (Base 50)    
Moisture  
Dew Point 37 °F    
Average Humidity 50    
Maximum Humidity 79    
Minimum Humidity 21    
Precipitation  
Precipitation 0.00 in 0.03 in 0.65 in (1940)
Month to date precipitation 0.00 1.04  
Year to date precipitation 6.47 9.59  
Snow  
Snow 0.00 in 0.10 in 5.60 in (1925)
Month to date snowfall 0.0 1.2  
Since 1 July snowfall 0.0 1.5  
Since 1 September snowfall 0.0 1.2  
Snow Depth 0.00 in    
Sea Level Pressure  
Sea Level Pressure 30.01 in    
Wind  
Wind Speed 3 mph (NW)    
Max Wind Speed 20 mph    
Max Gust Speed 26 mph    
Visibility 8 miles    
Events      
T = Trace of Precipitation, MM = Missing Value Source: NWS Daily Summary

Daily Weather History Graph

Daily Weather History Graph

Search for Another Location

Airport or City:

Trip Planner

Search our weather history database for the weather conditions in past years. The results will help you decide how hot, cold, wet, or windy it might be!

Date:

Astronomy

Sep. 28, 2012 Rise Set
Actual Time 7:23 AM MDT 7:12 PM MDT
Civil Twilight 6:53 AM MDT 7:42 PM MDT
Nautical Twilight 6:18 AM MDT 8:17 PM MDT
Astronomical Twilight 5:42 AM MDT 8:53 PM MDT
Moon 6:17 PM MDT (9/28) 5:55 AM MDT (9/28)
Length of Visible Light 12h 49m
Length of Day
11h 49m
Waxing Gibbous, 98% of the Moon is Illuminated
Sep 28
Waxing Gibbous
Sep 29
Full
Oct 8
Last Quarter
Oct 15
New
Oct 21
First Quarter

Hourly Weather History & Observations

Time (MDT) Temp. Windchill Dew Point Humidity Pressure Visibility Wind Dir Wind Speed Gust Speed Precip Events Conditions
12:53 AM 52.0 °F - 37.9 °F 59% 30.09 in 8.0 mi SW 3.5 mph - N/A   Clear
1:53 AM 48.9 °F - 37.9 °F 66% 30.08 in 8.0 mi ENE 4.6 mph - N/A   Clear
2:53 AM 50.0 °F - 37.9 °F 63% 30.07 in 8.0 mi Calm Calm - N/A   Clear
3:53 AM 46.9 °F - 37.9 °F 71% 30.06 in 8.0 mi West 4.6 mph - N/A   Clear
4:53 AM 46.0 °F 44.8 °F 37.0 °F 71% 30.06 in 8.0 mi ESE 3.5 mph - N/A   Clear
5:53 AM 46.0 °F - 37.0 °F 71% 30.07 in 8.0 mi Calm Calm - N/A   Clear
6:53 AM 41.0 °F - 35.1 °F 79% 30.09 in 7.0 mi Calm Calm - N/A   Clear
7:53 AM 41.0 °F - 36.0 °F 82% 30.12 in 8.0 mi Calm Calm - N/A   Clear
8:53 AM 46.9 °F - 37.0 °F 68% 30.12 in 8.0 mi Calm Calm - N/A   Clear
9:53 AM 51.1 °F - 39.0 °F 63% 30.11 in 8.0 mi Calm Calm - N/A   Clear
10:53 AM 55.9 °F - 37.9 °F 51% 30.09 in 7.0 mi Calm Calm - N/A   Clear
11:53 AM 60.1 °F - 39.9 °F 47% 30.06 in 7.0 mi Calm Calm - N/A   Clear
12:53 PM 66.2 °F - 39.2 °F 37% 30.03 in 8.0 mi Variable 3.5 mph - N/A   Clear
1:53 PM 73.0 °F - 39.9 °F 30% 29.99 in 8.0 mi NNE 4.6 mph - N/A   Clear
2:53 PM 75.9 °F - 41.0 °F 29% 29.95 in 8.0 mi NE 5.8 mph - N/A   Clear
3:53 PM 80.1 °F - 39.0 °F 23% 29.92 in 8.0 mi North 5.8 mph - N/A   Clear
4:53 PM 79.0 °F - 36.0 °F 21% 29.90 in 9.0 mi North 4.6 mph - N/A   Clear
5:53 PM 78.1 °F - 36.0 °F 22% 29.89 in 9.0 mi Calm Calm - N/A   Clear
6:53 PM 71.1 °F - 33.1 °F 25% 29.92 in 10.0 mi Calm Calm - N/A   Clear
7:53 PM 66.9 °F - 32.0 °F 27% 29.94 in 10.0 mi NW 4.6 mph - N/A   Clear
8:53 PM 66.9 °F - 32.0 °F 27% 29.94 in 10.0 mi WSW 4.6 mph - N/A   Clear
9:53 PM 66.9 °F - 32.0 °F 27% 29.95 in 10.0 mi Calm Calm - N/A   Mostly Cloudy
10:38 PM 71.6 °F - 33.8 °F 25% 29.96 in 8.0 mi West 18.4 mph 23.0 mph N/A   Partly Cloudy
10:53 PM 70.0 °F - 33.1 °F 26% 29.95 in 9.0 mi West 12.7 mph 23.0 mph N/A   Partly Cloudy
11:53 PM 69.1 °F - 34.0 °F 27% 29.95 in 10.0 mi West 9.2 mph - N/A   Mostly Cloudy